Regional Weather Roundup
Issued by NWS

Home | Current Version | Previous Version | Graphics & Text | Print | Product List | Glossary On
Versions: 1 2 3 4 5 6 7 8 9 10 11 12 13 14 15 16 17 18 19 20 21 22 23 24 25 26 27 28 29 30 31 32 33 34 35 36 37 38 39 40 41 42 43 44 45 46 47 48 49 50
000
ASUS45 KPSR 230910
RWRAZ

ARIZONA HOURLY REGIONAL WEATHER ROUNDUP
NATIONAL WEATHER SERVICE PHOENIX AZ
200 AM MST SAT JUL 23 2016

NOTE: FAIR INDICATES FEW OR NO CLOUDS BELOW 12,000 FEET WITH NO
SIGNIFICANT WEATHER AND/OR OBSTRUCTIONS TO VISIBILITY.

AZZ001>003-036-231000-
NORTHWEST ARIZONA

CITY           SKY/WX    TMP DP  RH WIND       PRES   REMARKS
BULLHEAD CITY  PTCLDY    99  45  15 SE3       29.77S
KINGMAN        MOCLDY    83  48  29 SE14      30.02F
$$

AZZ004>008-015-016-018-231000-
NORTH CENTRAL ARIZONA

CITY           SKY/WX    TMP DP  RH WIND       PRES   REMARKS
GRAND CANYON   MOCLDY    60  53  77 CALM      30.32F
WILLIAMS       MOCLDY    63  50  63 S7        30.39F
PRESCOTT       CLOUDY    68  59  73 N3        30.19S
FLAGSTAFF      CLOUDY    61  50  67 CALM      30.33F
PAYSON         MOCLDY    77  48  36 NE6       30.19F
PAGE           PTCLDY    83  46  27 S5        30.09F
$$

AZZ009>014-017-231000-
NORTHEAST ARIZONA

CITY           SKY/WX    TMP DP  RH WIND       PRES   REMARKS
WINSLOW        MOCLDY    67  52  58 CALM      30.17S
SAINT JOHNS    PTCLDY    65  51  60 S8        30.25F
WINDOW ROCK    PTCLDY    62  55  77 NE3       30.32F
SHOW LOW       PTCLDY    55  50  82 CALM      30.32F
$$

AZZ023-231000-
GREATER PHOENIX AREA

CITY           SKY/WX    TMP DP  RH WIND       PRES   REMARKS
PHOENIX        MOCLDY    96  53  23 W3        29.80F
BUCKEYE        CLEAR     90  54  29 CALM      29.83S
LUKE AFB       PTCLDY    92  56  29 NW6       29.81F
DEER VALLEY    PTCLDY    90  50  25 CALM      29.83F
SCOTTSDALE     PTCLDY    94  51  23 CALM      29.85F
MESA-GATEWAY   PTCLDY    91  54  27 N10       29.84S
$$

AZZ027-028-231000-
SOUTHWEST MARICOPA COUNTY AND PINAL COUNTY

CITY           SKY/WX    TMP DP  RH WIND       PRES   REMARKS
CASA GRANDE    MOCLDY    91  52  25 W5        29.85F
GILA BEND      FAIR      92  49  22 SW6       29.78F
$$

AZZ503-504-507>509-231000-
SOUTHEAST ARIZONA

CITY           SKY/WX    TMP DP  RH WIND       PRES   REMARKS
TUCSON         PTCLDY    87  57  35 S12       29.97R
DAVIS-MONTHAN  PTCLDY    85  55  34 S10       29.95S
NOGALES        CLOUDY    74  61  63 SE3       30.11R
SIERRA VISTA   MOCLDY    79  50  36 VRB7      30.12F
DOUGLAS        MOCLDY    73  61  65 E7        30.07F
SAFFORD        CLEAR     79  56  45 NW3       29.96F
$$

AZZ020-021-025-026-031-231000-
SOUTHWEST ARIZONA

CITY           SKY/WX    TMP DP  RH WIND       PRES   REMARKS
YUMA           CLEAR     92  63  38 S5        29.75S
$$

CAZ031-033-041-043-047-048-061-231000-
SOUTHERN CALIFORNIA

CITY           SKY/WX    TMP DP  RH WIND       PRES   REMARKS
DOWNTOWN L.A.  MOCLDY    74  59  59 CALM      29.80F
L.A. AIRPORT   PTCLDY    72  59  63 E3        29.80F
SAN DIEGO      CLEAR     69  67  93 S5        29.84F
BURBANK        CLOUDY    82  48  30 CALM      29.81F
ONTARIO        CLEAR     82  49  31 CALM      29.83F
RIVERSIDE      CLEAR     79  54  41 CALM      29.83F
PALM SPRINGS   CLEAR     94  51  23 NW3       29.78F
EL CENTRO NAS  PTCLDY    87  58  37 CALM      29.72S
IMPERIAL       PTCLDY    88  63  43 N3        29.70F
BLYTHE         PTCLDY    96  52  22 S5        29.76S
NEEDLES        PTCLDY    99  45  15 SW5       29.78F
$$

NVZ020-UTZ003-231000-
SOUTHERN NEVADA-UTAH

CITY           SKY/WX    TMP DP  RH WIND       PRES   REMARKS
LAS VEGAS      PTCLDY    93  25   8 S8        29.82F
SALT LAKE CITY MOCLDY    71  42  35 MISG      30.09R
$$

NMZ009-TXZ055-231000-
NEW MEXICO-WEST TEXAS

CITY           SKY/WX    TMP DP  RH WIND       PRES   REMARKS
ALBUQUERQUE    PTCLDY    78  51  38 W6        30.19F
EL PASO        PTCLDY    84  46  26 CALM      30.04F
$$


........................KEY........................
SKY/WX - SKY CONDITION/WEATHER
TMP    - TEMPERATURE IN FAHRENHEIT
DP     - DEW POINT IN FAHRENHEIT
RH     - RELATIVE HUMIDITY IN PERCENT
WIND   - DIRECTION AND SPEED IN MILES PER HOUR (MPH)
VRB    - VARIABLE WIND DIRECTION
PRES   - MEAN SEA LEVEL PRESSURE IN INCHES OF MERCURY
         F - FALLING PRESSURE   R - RISING PRESSURE
         S - STEADY PRESSURE
VSB    - VISIBILITY IN MILES
HX     - HEAT INDEX IN FAHRENHEIT
WCI    - WIND CHILL INDEX IN FAHRENHEIT
TC     - TEMPERATURE IN CELSIUS WHICH IS ALSO KNOWN AS
         TEMPERATURE IN CENTIGRADE
AFB    - AIR FORCE BASE
         LUKE AFB IS LUKE AIR FORCE BASE
         DAVIS-MONTHAN IS DAVIS-MONTHAN AIR FORCE BASE
NAS    - NAVAL AIR STATION
         EL CENTRO NAS IS EL CENTRO NAVAL AIR STATION
N/A    - NOT AVAILABLE




USA.gov is the U.S. government's official web portal to all federal, state and local government web resources and services.